Location: Calvera
(42.3882°N, 0.6137°E)
Time: 14:48:18
(UTC+00:00)

Cosmos 1092 Rocket - Pass Details

Date: 28 October 2020
Orbit: 955 x 994 km, 83.0° (Epoch: 24 November)

Event Time Altitude Azimuth Distance (km) Brightness Sun altitude
Rises 04:36:35 0° 184° (S) 3,624 6.9 -20.8°
Reaches altitude 10° 04:39:03 10° 183° (S) 2,685 6.3 -20.3°
Maximum altitude 04:45:12 85° 96° (E) 975 4.0 -19.2°
Drops below altitude 10° 04:51:28 10° 9° (N) 2,728 6.4 -18.1°
Sets 04:53:59 0° 9° (N) 3,685 7.1 -17.6°
